Weather History for College Park, MD

Change the Weather History Date:

Tuesday, March 4, 2014

  Actual Average Record
Temperature  
Mean Temperature 19 °F -  
Max Temperature 32 °F 51 °F 79 °F (1974)
Min Temperature 6 °F 33 °F 6 °F (2014)
Degree Days  
Heating Degree Days 46    
Moisture  
Dew Point 7 °F    
Average Humidity 61    
Maximum Humidity 93    
Minimum Humidity 26    
Precipitation  
Precipitation 0.00 in - - ()
Sea Level Pressure  
Sea Level Pressure 30.34 in    
Wind  
Wind Speed 1 mph (North)    
Max Wind Speed 6 mph    
Max Gust Speed -    
Visibility 10 miles    
Events      
Averages and records for this station are not official NWS values.
T = Trace of Precipitation, MM = Missing Value Source: NWS Daily Summary

Daily Weather History Graph

Daily Weather History Graph

Search for Another Location

Airport:

Trip Planner

Search our weather history database for the weather conditions in past years. The results will help you decide how hot, cold, wet, or windy it might be!

Date:

Astronomy

Mar. 04, 2014 Rise Set
Actual Time 6:35 AM EST 6:03 PM EST
Civil Twilight 6:09 AM EST 6:30 PM EST
Nautical Twilight 5:38 AM EST 7:01 PM EST
Astronomical Twilight 5:07 AM EST 7:32 PM EST
Moon 8:22 AM EST (3/4) 10:06 PM EST (3/4)
Length of Visible Light 12h 21m
Length of Day
11h 27m
Waxing Crescent, 14% of the Moon is Illuminated
Mar 4
Waxing Crescent
Mar 8
First Quarter
Mar 16
Full
Mar 23
Last Quarter
Mar 30
New

Hourly Weather History & Observations

Time (EST) Temp. Windchill Dew Point Humidity Pressure Visibility Wind Dir Wind Speed Gust Speed Precip Events Conditions
2:30 AM 6.6 °F - 3.9 °F 89% 30.35 in 10.0 mi Calm Calm - N/A   Clear
2:50 AM 6.4 °F - 3.7 °F 89% 30.35 in 10.0 mi Calm Calm - N/A   Clear
3:10 AM 7.2 °F - 4.5 °F 89% 30.36 in 10.0 mi Calm Calm - N/A   Clear
3:30 AM 8.6 °F - 5.9 °F 89% 30.35 in 10.0 mi Calm Calm - N/A   Clear
3:50 AM 8.4 °F - 5.9 °F 89% 30.35 in 10.0 mi Calm Calm - N/A   Clear
4:10 AM 7.5 °F - 4.8 °F 89% 30.35 in 10.0 mi Calm Calm - N/A   Clear
4:30 AM 8.1 °F - 5.7 °F 90% 30.36 in 10.0 mi Calm Calm - N/A   Clear
4:50 AM 8.2 °F - 5.7 °F 89% 30.37 in 10.0 mi Calm Calm - N/A   Clear
5:10 AM 8.2 °F - 5.7 °F 89% 30.38 in 10.0 mi Calm Calm - N/A   Clear
5:30 AM 7.9 °F - 5.4 °F 89% 30.38 in 10.0 mi Calm Calm - N/A   Clear
5:50 AM 7.7 °F - 5.0 °F 89% 30.40 in 10.0 mi Calm Calm - N/A   Clear
6:10 AM 8.6 °F - 6.1 °F 89% 30.40 in 10.0 mi Calm Calm - N/A   Clear
6:30 AM 7.2 °F - 4.3 °F 88% 30.40 in 10.0 mi Calm Calm - N/A   Clear
6:50 AM 8.1 °F - 5.5 °F 89% 30.40 in 7.0 mi Calm Calm - N/A   Clear
7:10 AM 8.8 °F - 6.3 °F 89% 30.41 in 10.0 mi Calm Calm - N/A   Clear
7:30 AM 10.8 °F - 8.4 °F 90% 30.42 in 10.0 mi Calm Calm - N/A   Clear
7:50 AM 12.6 °F - 10.4 °F 91% 30.42 in 10.0 mi Calm Calm - N/A   Clear
8:10 AM 14.4 °F 8.6 °F 12.6 °F 93% 30.42 in 10.0 mi North 3.5 mph - N/A   Clear
8:30 AM 14.9 °F - 13.1 °F 93% 30.42 in 10.0 mi Calm Calm - N/A   Clear
8:50 AM 16.5 °F 9.4 °F 11.8 °F 82% 30.43 in 10.0 mi NNE 4.6 mph - N/A   Clear
9:30 AM 19.8 °F 14.7 °F 3.0 °F 48% 30.44 in 10.0 mi NNE 3.5 mph - N/A   Clear
9:50 AM 20.3 °F 13.8 °F 2.8 °F 47% 30.43 in 10.0 mi North 4.6 mph - N/A   Clear
10:10 AM 21.2 °F 14.9 °F 3.9 °F 47% 30.43 in 10.0 mi NNW 4.6 mph - N/A   Clear
10:30 AM 22.1 °F 14.7 °F 2.3 °F 42% 30.42 in 10.0 mi NNE 5.8 mph - N/A   Clear
11:10 AM 24.8 °F 19.1 °F 1.8 °F 37% 30.41 in 10.0 mi East 4.6 mph - N/A   Clear
11:35 AM 24.6 °F - 2.1 °F 38% 30.40 in 10.0 mi Calm Calm - N/A   Clear
11:55 AM 24.8 °F - 1.9 °F 37% 30.39 in 10.0 mi Calm Calm - N/A   Clear
12:15 PM 26.1 °F - 1.8 °F 35% 30.38 in 10.0 mi Calm Calm - N/A   Clear
12:35 PM 26.6 °F - 1.6 °F 34% 30.37 in 10.0 mi Calm Calm - N/A   Clear
12:55 PM 27.1 °F - 0.7 °F 32% 30.36 in 10.0 mi Calm Calm - N/A   Clear
1:15 PM 28.0 °F - 0.9 °F 31% 30.35 in 10.0 mi Calm Calm - N/A   Clear
1:35 PM 29.5 °F - 1.8 °F 31% 30.33 in 10.0 mi Calm Calm - N/A   Clear
1:55 PM 29.1 °F - 0.1 °F 29% 30.33 in 10.0 mi Calm Calm - N/A   Clear
2:15 PM 29.3 °F 25.6 °F 1.0 °F 30% 30.33 in 10.0 mi WSW 3.5 mph - N/A   Clear
2:35 PM 30.0 °F - 0.7 °F 29% 30.32 in 10.0 mi Calm Calm - N/A   Clear
2:55 PM 30.6 °F - 0.3 °F 27% 30.31 in 10.0 mi Calm Calm - N/A   Clear
3:15 PM 30.9 °F - 1.6 °F 29% 30.31 in 10.0 mi Calm Calm - N/A   Clear
3:35 PM 31.8 °F - 0.5 °F 26% 30.30 in 10.0 mi Calm Calm - N/A   Clear
3:55 PM 31.1 °F - 0.5 °F 27% 30.29 in 10.0 mi Calm Calm - N/A   Clear
4:15 PM 32.0 °F - 3.4 °F 30% 30.29 in 10.0 mi Calm Calm - N/A   Clear
4:35 PM 31.8 °F - 3.4 °F 30% 30.28 in 10.0 mi Calm Calm - N/A   Clear
4:55 PM 31.6 °F 28.3 °F 2.8 °F 30% 30.29 in 10.0 mi West 3.5 mph - N/A   Clear
5:15 PM 31.3 °F - 2.3 °F 29% 30.29 in 10.0 mi Calm Calm - N/A   Clear
5:35 PM 30.9 °F - 3.2 °F 31% 30.28 in 10.0 mi Calm Calm - N/A   Clear
5:55 PM 30.7 °F - 3.4 °F 31% 30.28 in 10.0 mi Calm Calm - N/A   Clear
6:15 PM 30.2 °F - 5.9 °F 36% 30.28 in 10.0 mi Calm Calm - N/A   Clear
6:35 PM 28.8 °F - 9.5 °F 45% 30.28 in 10.0 mi Calm Calm - N/A   Clear
6:55 PM 27.0 °F - 12.9 °F 56% 30.28 in 10.0 mi Calm Calm - N/A   Clear
7:15 PM 26.4 °F - 14.2 °F 60% 30.28 in 10.0 mi Calm Calm - N/A   Clear
7:35 PM 26.1 °F - 15.4 °F 64% 30.28 in 10.0 mi Calm Calm - N/A   Clear
7:55 PM 25.3 °F - 17.8 °F 73% 30.28 in 10.0 mi Calm Calm - N/A   Clear
8:15 PM 25.0 °F - 15.8 °F 68% 30.28 in 10.0 mi Calm Calm - N/A   Clear
8:35 PM 24.4 °F - 17.1 °F 73% 30.28 in 10.0 mi Calm Calm - N/A   Clear
8:55 PM 24.1 °F - 18.9 °F 80% 30.29 in 10.0 mi Calm Calm - N/A   Clear
9:15 PM 23.7 °F - 17.6 °F 77% 30.29 in 10.0 mi Calm Calm - N/A   Clear
9:35 PM 24.4 °F - 14.9 °F 67% 30.28 in 10.0 mi Calm Calm - N/A   Clear
9:55 PM 24.6 °F - 14.7 °F 66% 30.28 in 10.0 mi Calm Calm - N/A   Clear
10:15 PM 25.5 °F - 14.0 °F 62% 30.28 in 10.0 mi Calm Calm - N/A   Clear
10:35 PM 23.7 °F - 15.6 °F 71% 30.28 in 10.0 mi Calm Calm - N/A   Clear
10:55 PM 23.2 °F - 17.6 °F 79% 30.28 in 10.0 mi Calm Calm - N/A   Clear
11:15 PM 23.2 °F - 18.3 °F 82% 30.26 in 10.0 mi Calm Calm - N/A   Clear
11:35 PM 22.8 °F - 17.6 °F 80% 30.26 in 10.0 mi Calm Calm - N/A   Clear
11:55 PM 21.9 °F - 17.6 °F 83% 30.25 in 10.0 mi Calm Calm - N/A   Clear